Regional Weather Roundup
Issued by NWS San Angelo, TX

Home | Current Version | Previous Version | Text Only | Print | Product List | Glossary On
Versions: 1 2 3 4 5 6 7 8 9 10 11 12 13 14 15 16 17 18 19 20 21 22 23 24 25 26 27 28 29 30 31 32 33 34 35 36 37 38 39 40 41 42 43 44 45 46 47 48 49 50
000
ASUS44 KSJT 020310
RWRSJT
WEST CENTRAL TEXAS REGIONAL WEATHER ROUNDUP
NATIONAL WEATHER SERVICE SAN ANGELO TX
1000 PM CDT SAT AUG 01 2015

NOTE: "FAIR" INDICATES FEW OR NO CLOUDS BELOW 12,000 FEET WITH NO
SIGNIFICANT WEATHER AND/OR OBSTRUCTIONS TO VISIBILITY.

TXZ049-054-064>066-071>073-076>078-098-099-113-114-127-128-139-140-
154-155-168>170-020400
...LOCATIONS ACROSS WEST CENTRAL TEXAS...

CITY           SKY/WX    TMP DP  RH WIND       PRES   REMARKS
SAN ANGELO     CLEAR     87  60  40 E9        29.98R
ABILENE        CLOUDY    86  64  47 SE8       30.00R
DYESS AFB      CLOUDY    86  66  50 SE7       29.98R
JUNCTION       CLEAR     85  60  42 E6        29.98R
SWEETWATER     CLOUDY    84  62  46 E8        30.04R
BROWNWOOD      CLOUDY    81  61  50 SE6       29.98R
COLEMAN        PTCLDY    82  65  56 E3        29.99R
SONORA         CLEAR     81  68  65 CALM      30.04R
OZONA          FAIR      79  61  53 CALM      30.04R
BRADY          CLEAR     86  57  37 E7        29.99R
$$

TEXAS PANHANDLE/OKLAHOMA PANHANDLE

CITY           SKY/WX    TMP DP  RH WIND       PRES   REMARKS
AMARILLO       MOCLDY    74  69  85 SE14      30.07R
BORGER         PTCLDY    77  69  76 SE13      30.04R
CANADIAN       PTCLDY    78  68  71 S10       30.01F
DALHART        MOCLDY    77  69  76 SE9       30.08R
DUMAS          PTCLDY    73  68  84 SE8       30.07R
GUYMON         NOT AVBL
HEREFORD       TSTM      78  72  80 MISG      30.10R
PAMPA          PTCLDY    74  68  80 SE10      30.07S
PERRYTON       NOT AVBL
$$

SOUTHERN PANHANDLE/SOUTH PLAINS/ROLLING PLAINS

CITY           SKY/WX    TMP DP  RH WIND       PRES   REMARKS
LUBBOCK        LGT RAIN  72  62  71 S17       30.05F
SNYDER         CLOUDY    85  66  52 SE6       30.03R
CHILDRESS      PTCLDY    75  71  87 SE5       30.02R
SEMINOLE       PTCLDY    83  61  46 NE6       30.08R
$$

PERMIAN BASIN

CITY           SKY/WX    TMP DP  RH WIND       PRES   REMARKS
MIDLAND        PTCLDY    82  63  52 SE9       30.02R
ODESSA         CLEAR     83  61  47 SE12      30.03R
WINK           PTCLDY    87  60  40 SE15G28   29.98R
$$

FAR WEST/SOUTHWEST MOUNTAINS/TRANS PECOS

CITY           SKY/WX    TMP DP  RH WIND       PRES   REMARKS
ALPINE         PTCLDY    76  60  56 SE8       30.17R
DRYDEN           N/A     86  64  47 VRB7      29.97R
EL PASO        PTCLDY    87  55  33 SE13      30.01R
FORT STOCKTON  LGT RAIN  85  60  42 SE10      30.02R
GUADALUPE PASS MOCLDY    78  52  40 NE14      30.18R
MARFA          PTCLDY    70  63  78 E7        30.15R
PECOS          PTCLDY    85  62  45 SE14      29.97R
$$

DALLAS/FORT WORTH METROPLEX

CITY           SKY/WX    TMP DP  RH WIND       PRES   REMARKS
DFW AIRPORT    PTCLDY    87  58  37 SE8       29.94R
FTW MEACHAM    CLOUDY    89  57  33 SE6       29.94R
DAL-EXECUTIVE  PTCLDY    86  59  39 SE7       29.95R
GRAND PRAIRIE  PTCLDY    88  59  37 E3        29.96R
ADDISON        PTCLDY    90  55  31 E8        29.95S
MESQUITE       CLEAR     84  57  39 E5        29.95R
LANCASTER      PTCLDY    84  57  39 CALM      29.95S
$$

NORTH CENTRAL TEXAS

CITY           SKY/WX    TMP DP  RH WIND       PRES   REMARKS
SHRMAN/DENISON PTCLDY    83  65  55 E5        29.97S
GAINESVILLE    MOCLDY    80  62  53 CALM      29.98S
BRIDGEPORT     NOT AVBL
DENTON         PTCLDY    83  59  44 S3        29.95R
WAXAHACHIE     PTCLDY    84  61  45 CALM      29.96R
GRANBURY       CLEAR     84  60  43 CALM      29.97R
$$

WESTERN NORTH TEXAS

CITY           SKY/WX    TMP DP  RH WIND       PRES   REMARKS
WICHITA FALLS  CLOUDY    80  72  76 CALM      29.97R
VERNON         MOCLDY    79  66  65 CALM      30.01R
BRECKENRIDGE   CLOUDY    84  63  48 CALM      29.97R
COMANCHE       MOCLDY    82  63  52 SE5       29.98R
$$

CENTRAL AND SOUTH CENTRAL TEXAS

CITY           SKY/WX    TMP DP  RH WIND       PRES   REMARKS
AUSTIN/BERGSTM PTCLDY    80  63  55 VRB5      29.92S
WACO           PTCLDY    85  60  42 E5        29.93S
HILLSBORO      PTCLDY    86  56  35 E6        29.95R
TEMPLE         CLEAR     82  57  42 E6        29.94R
KILLEEN-GRAY   CLEAR     86  54  33 CALM      29.95R
FORT HOOD      CLEAR     87  56  34 E6        29.94R
GEORGETOWN     CLEAR     86  57  37 CALM      29.94R
LAGO VISTA     FAIR      85  54  34 E7        29.97S
SAN MARCOS     CLEAR     81  61  50 E5        29.94R
NEW BRAUNFELS  CLEAR     84  61  45 E6        29.92R
RANDOLPH AFB   CLEAR     82  61  48 E3        29.94R
SAN ANTONIO    PTCLDY    86  58  38 E7        29.94R
STINSON        CLEAR     87  58  37 E8        29.91R
PLEASANTON     NOT AVBL
LA GRANGE      CLEAR     81  69  65 CALM      29.91R
GIDDINGS       CLEAR     79  65  63 CALM      29.97R
$$

EAST TEXAS

CITY           SKY/WX    TMP DP  RH WIND       PRES   REMARKS
PARIS          PTCLDY    81  61  50 SE7       29.97R
CLARKSVILLE    NOT AVBL
TYLER          CLEAR     86  59  39 E6        29.96R
LONGVIEW       CLEAR     79  63  57 CALM      29.95R
PALESTINE      CLEAR     82  61  49 E5        29.95S
NACOGDOCHES    CLEAR     77  61  57 E6        29.95R
$$

TEXAS HILL COUNTRY AND EDWARDS PLATEAU

CITY           SKY/WX    TMP DP  RH WIND       PRES   REMARKS
LLANO          CLEAR     84  57  39 CALM      29.99R
HORSESHOE BAY  FAIR      83  57  40 CALM      29.96R
KERRVILLE      CLEAR     82  59  44 E6        29.99R
FREDERICKSBRG  CLEAR     80  59  48 CALM      29.99R
ROCKSPRINGS    CLEAR     81  59  47 CALM      30.04R
HONDO          CLEAR     86  58  38 E9        29.95R
UVALDE         CLEAR     84  63  48 SE5       29.93R
DEL RIO        CLEAR     84  75  74 CALM      29.90R
$$

SOUTHEAST TEXAS

CITY           SKY/WX    TMP DP  RH WIND       PRES   REMARKS
COLLEGE STN    CLEAR     86  59  39 E6        29.93R
CALDWELL       CLEAR     82  61  47 CALM      29.96R
CROCKETT       CLOUDY    77  68  73 CALM      29.97R
BRENHAM        CLEAR     83  67  58 CALM      29.93R
HUNTSVILLE     CLEAR     81  62  52 CALM      29.94R
CONROE         CLEAR     76  65  68 CALM      29.93R
HOUSTON BUSH   PTCLDY    80  64  58 SE6       29.91R
HOUSTON HOBBY  PTCLDY    84  67  56 S6        29.90R
PERLAND        CLEAR     84  68  58 S3        29.92S
WHARTON        CLEAR     80  68  67 SE3       29.92S
$$

THE UPPER TEXAS COAST

CITY           SKY/WX    TMP DP  RH WIND       PRES   REMARKS
ORANGE         CLEAR     75  62  64 CALM      29.92S
PORT ARTHUR    CLEAR     78  72  81 W5        29.90S
GALVESTON      CLEAR     86  69  56 SE3       29.92S
ANGLETON       CLEAR     78  73  84 CALM      29.91R
BAY CITY       CLEAR     81  73  77 CALM      29.91R
$$

TEXAS COASTAL BEND, RIO GRANDE PLAINS DEEP SOUTH TEXAS

CITY           SKY/WX    TMP DP  RH WIND       PRES   REMARKS
VICTORIA       PTCLDY    82  72  71 S3        29.92R
BEEVILLE       FAIR      80  72  77 SE5       29.92R
ROCKPORT       PTCLDY    85  75  72 SE12      29.90R
PORT ARANSAS   PTCLDY    83  77  81 E7        29.91R
PORT LAVACA    PTCLDY    81  75  83 SE5       29.92R
CORPUS CHRISTI MOCLDY    82  73  74 SE8       29.90R
KINGSVILLE NAS PTCLDY    81  75  82 SE3       29.90R
COTULLA        PTCLDY    90  65  43 SE7       29.90R
LAREDO         CLEAR     89  64  43 E9        29.92R
BROWNSVILLE    MOCLDY    79  74  84 S6        29.92R
PORT ISABEL    PTCLDY    79  73  82 S6        29.91R
HEBBRONVILLE     N/A     82  64  53 SE3       29.93R
MCALLEN        CLEAR     85  72  65 SE9       29.92R
WESLACO        CLEAR     82  71  69 S7        29.91R
FALFURRIAS     MOCLDY    82  67  61 E3        29.90R
EDINBURG       PTCLDY    81  70  69 SE6       29.91R
$$



USA.gov is the U.S. government's official web portal to all federal, state and local government web resources and services.